Location: Zagreb
(45.8000°N, 16.0000°E)
Time: 14:29:45
(UTC+02:00)

Vanguard 1 - Pass Details

Date: 12 August 2022
Orbit: 649 x 3832 km, 34.2° (Epoch: 25 September)

Event Time Altitude Azimuth Distance (km) Brightness Sun altitude
Rises 08:43:00 0° 269° (W) 6,950 13.9 28.3°
Reaches altitude 10° 08:47:16 10° 266° (W) 6,237 13.7 29.1°
Maximum altitude 09:07:58 55° 196° (SSW) 4,298 13.7 32.6°
Drops below altitude 10° 09:28:48 10° 127° (SE) 6,256 15.3 36.1°
Sets 09:33:07 0° 123° (ESE) 6,970 15.3 36.8°
